Scottsdale, AZ

10:18 AM MST on December 08, 2016 (GMT -0700)
Scottsdale

Weather History for KSDL - October, 2011

Change the Weather History Date:

Monday, October 24, 2011

  Actual Average Record
Temperature  
Mean Temperature 77 °F -  
Max Temperature 90 °F 78 °F 93 °F (1999)
Min Temperature 64 °F 57 °F 48 °F (1996)
Cooling Degree Days 12    
Growing Degree Days 27 (Base 50)    
Moisture  
Dew Point 38 °F    
Average Humidity 26    
Maximum Humidity 45    
Minimum Humidity 14    
Precipitation  
Precipitation 0.00 in - - ()
Sea Level Pressure  
Sea Level Pressure 29.90 in    
Wind  
Wind Speed 1 mph (SSW)    
Max Wind Speed 5 mph    
Max Gust Speed -    
Visibility 10 miles    
Events      
Averages and records for this station are not official NWS values.
T = Trace of Precipitation, MM = Missing Value Source: NWS Daily Summary

Daily Weather History Graph

Daily Weather History Graph

Search for Another Location

Airport or City:

Trip Planner

Search our weather history database for the weather conditions in past years. The results will help you decide how hot, cold, wet, or windy it might be!

Date:

Astronomy

Oct. 24, 2011 Rise Set
Actual Time 6:39 AM MST 5:43 PM MST
Civil Twilight 6:14 AM MST 6:09 PM MST
Nautical Twilight 5:45 AM MST 6:38 PM MST
Astronomical Twilight 5:16 AM MST 7:07 PM MST
Moon 4:08 AM MST (10/24) 4:07 PM MST (10/24)
Length of Visible Light 11h 54m
Length of Day
11h 04m
Waning Crescent, 6% of the Moon is Illuminated
Oct 24
Waning Crescent
Oct 26
New
Nov 2
First Quarter
Nov 10
Full
Nov 18
Last Quarter

Hourly Weather History & Observations

Time (MST) Temp. Dew Point Humidity Pressure Visibility Wind Dir Wind Speed Gust Speed Precip Events Conditions
12:53 AM 68.0 °F 41.0 °F 37% 29.89 in 10.0 mi Calm Calm - N/A   Clear
1:53 AM 70.0 °F 39.0 °F 32% 29.89 in 10.0 mi Calm Calm - N/A   Clear
2:53 AM 68.0 °F 39.0 °F 35% 29.88 in 10.0 mi Calm Calm - N/A   Clear
3:53 AM 66.9 °F 39.0 °F 36% 29.89 in 10.0 mi Calm Calm - N/A   Clear
4:53 AM 64.0 °F 42.1 °F 45% 29.89 in 10.0 mi Calm Calm - N/A   Clear
5:53 AM 64.9 °F 42.1 °F 43% 29.90 in 10.0 mi Calm Calm - N/A   Clear
6:53 AM 64.0 °F 41.0 °F 43% 29.93 in 10.0 mi NNW 3.5 mph - N/A   Clear
7:53 AM 72.0 °F 35.1 °F 26% 29.95 in 10.0 mi North 3.5 mph - N/A   Clear
8:53 AM 78.1 °F 34.0 °F 20% 29.95 in 10.0 mi NNE 3.5 mph - N/A   Clear
9:53 AM 80.1 °F 34.0 °F 19% 29.95 in 10.0 mi Calm Calm - N/A   Clear
10:53 AM 81.0 °F 39.0 °F 22% 29.96 in 10.0 mi SSW 3.5 mph - N/A   Clear
11:53 AM 82.9 °F 37.0 °F 19% 29.93 in 10.0 mi Calm Calm - N/A   Clear
12:53 PM 86.0 °F 37.0 °F 18% 29.91 in 10.0 mi Calm Calm - N/A   Clear
1:53 PM 89.1 °F 35.1 °F 15% 29.88 in 10.0 mi Variable 3.5 mph - N/A   Clear
2:53 PM 90.0 °F 34.0 °F 14% 29.87 in 10.0 mi South 3.5 mph - N/A   Partly Cloudy
3:53 PM 90.0 °F 36.0 °F 15% 29.86 in 10.0 mi South 3.5 mph - N/A   Clear
4:53 PM 88.0 °F 37.0 °F 16% 29.87 in 10.0 mi Calm Calm - N/A   Clear
5:53 PM 86.0 °F 37.9 °F 18% 29.86 in 10.0 mi Calm Calm - N/A   Clear
6:53 PM 84.9 °F 37.9 °F 19% 29.88 in 10.0 mi Calm Calm - N/A   Clear
7:53 PM 82.9 °F 39.0 °F 21% 29.89 in 10.0 mi Calm Calm - N/A   Clear
9:53 PM 81.0 °F 39.9 °F 23% 29.90 in 10.0 mi Calm Calm - N/A   Overcast
10:53 PM 79.0 °F 41.0 °F 26% 29.90 in 10.0 mi South 4.6 mph - N/A   Mostly Cloudy
11:53 PM 78.1 °F 44.1 °F 30% 29.89 in 10.0 mi Calm Calm - N/A   Mostly Cloudy